Flag for Germany Weather past 2 weeks in Mühlhausen/Thüringen, Thuringia, Germany

Now
33 °F

Partly sunny.


Feels Like: 25 °F
Forecast: 31 / 35 °F
Wind: 10 mph from Southwest

Location: Erfurt-Bindersleben

Current Time: Jan 29, 2015 at 12:13:21 PM

Latest Report: Jan 29, 2015 at 11:00 AM


Visibility: 11 mi

Pressure: 29.29 "Hg

Humidity: 82%

Dew point: 28 °F

Location of Mühlhausen/ThüringenLocation

Historic Weather in Mühlhausen/Thüringen — Graph

°F

Mühlhausen/Thüringen temperature yesterday

Maximum temperature yesterday: 38 °F (at 3:00 PM)
Minimum temperature yesterday: 34 °F (at 2:00 AM)
Average temperature yesterday: 36 °F

Past Weeks' High & Low Weather Summary

 TemperatureHumidityPressure
High48 °F (Jan 16, 1:00 AM)100% (Jan 16, 10:00 PM)30.38 "Hg (Jan 16, 10:00 PM)
Low20 °F (Jan 24, 9:00 AM)61% (Jan 15, 8:00 PM)29.29 "Hg (Jan 29, 11:00 AM)
Average33 °F90%29.99 "Hg
* Reported Jan 14 11:00 AM — Jan 29 11:00 AM, Mühlhausen/Thüringen, Weather by CustomWeather, © 2014

Note: Actual official high and low records may vary slightly from our data, if they occured in-between our weather recording intervals... More about our weather records

Advertising

Mühlhausen/Thüringen weather history for previous 24 hours

 ConditionsComfort  
Time TempWeatherWind HumidityBarometerVisibility
11:00 AM
Jan 29
33 °FPartly sunny.10 mph82%29.29 "Hg11 mi
10:00 AM33 °FScattered clouds.13 mph78%29.32 "Hg25 mi
9:00 AM32 °FScattered clouds.10 mph79%29.35 "Hg25 mi
8:00 AM31 °FPassing clouds.8 mph79%29.38 "Hg22 mi
7:00 AM31 °FPassing clouds.7 mph76%29.38 "Hg19 mi
6:00 AM31 °FPassing clouds.9 mph88%29.41 "Hg16 mi
5:00 AM33 °FOvercast.8 mph85%29.41 "Hg19 mi
4:00 AM33 °FSnow flurries. Overcast.10 mph87%29.41 "Hg3 mi
3:00 AM33 °FPassing clouds.9 mph84%29.41 "Hg19 mi
2:00 AM33 °FPassing clouds.8 mph84%29.41 "Hg19 mi
1:00 AM33 °FPassing clouds.10 mph95%29.41 "Hg16 mi
12:00 AM35 °FLight rain. Overcast.8 mph92%29.41 "Hg12 mi
11:00 PM
Jan 28
37 °FLight rain. Overcast.13 mph88%29.38 "Hg12 mi
10:00 PM37 °FLight rain. Overcast.13 mph86%29.38 "Hg12 mi
9:00 PM37 °FLight rain. Overcast.14 mph85%29.38 "Hg12 mi
8:00 PM37 °FLight mixture of precip. Low clouds.9 mph88%29.44 "Hg16 mi
6:00 PM37 °FOvercast.15 mph80%29.55 "Hg19 mi
5:00 PM36 °FOvercast.15 mph85%29.60 "Hg19 mi
4:00 PM36 °FOvercast.14 mph85%29.67 "Hg19 mi
3:00 PM38 °FOvercast.9 mph83%29.72 "Hg19 mi
2:00 PM38 °FOvercast.10 mph83%29.77 "Hg19 mi
1:00 PM38 °FOvercast.12 mph82%29.83 "Hg19 mi
12:00 PM37 °FOvercast.12 mph83%29.90 "Hg19 mi
Weather by CustomWeather, © 2014

See weather overviewHow to use our weather pages